sat.trackr.live / text

‹ back to catalog

STARLINK-2666

NORAD 48666 · 2021-044AE

PAYLOAD ACTIVE UNKNOWN

§ Identity

Operator
Country
US
Launch date
2021-05-26
Launch site
AFETR
Launch vehicle
Mass (kg)
RCS (m²)

Purposes: comms

External: N2YO · Heavens-Above · Gunter

§ Orbital elements

Epoch: 2026-09-09T12:20:07.619712Z

Period
94.01 min
Inclination
53.1618°
Eccentricity
0.0001040
Mean motion
15.31733109 rev/d
Perigee alt
469.9 km
Apogee alt
471.4 km
Semi-major
6,848.8 km
B*
-1.2976e-4
RAAN
340.0407°
Arg perigee
83.4271°
Mean anomaly
276.6848°
Rev number
29,195

§ Raw data

STARLINK-26661 48666U 21044AE  26252.51397708 -.00004394  00000+0 -12976-3 0  99972 48666  53.1618 340.0407 0001040  83.4271 276.6848 15.31733109291954

JSON: /api/v1/satellites/48666 · /tle

For live sub-satellite position, see the globe view (requires WebGL).

§ Visibility from observer

Set your observer location to see the next 7 days of passes ≥ 10°. The values pass through the URL so the page stays shareable.

No JS? Fill the form by hand. The geolocation button needs JavaScript.